Find Starlink 31338

NORAD ID: 59156 Int'l Des: 2024-044 Owner: SPXS Country: US Constellation: starlink operational
LEOCIRCULAR

当前视图

正在加载3D地球...

About Starlink 31338

Starlink 31338 (NORAD 59156) is a starlink constellation satellite (v2 mini) launched Mar 4, 2024 by SPXS of US. It operates in LEO, CIRCULAR orbit with a mass of 730.00 kg.

即将过境

Passes for default location (London). Set your location on the main map for personalized predictions.

高度历史

Loading altitude history...

两行轨道根数

1 59156U 24044E 26262.69479988 .00000646 00000-0 33006-4 0 9990
2 59156 43.0004 95.0485 0001292 270.9908 89.0796 15.27580757143193
Epoch: Sep 19, 2026 • Age: 24 hours

当前状态

高度 486.1 km
远地点 / 近地点 N/A
速度 7.63 km/s
星下点 39.03°N, 97.89°W
发射日期 Mar 4, 2024
运行时间 2.5 years
类型 internet

技术详情

分类 Payload
质量 730.00 kg
干质量 700.00 kg
长度 0.30 m
跨度 29.00 m
形状 ? Box + pan
制造商 SPXS
平台类型 Starlink V2M
阶段状态 In Orbit
所有者/国家 SPXS/US

Most Searched